Location: Sobotiste
(48.7170°N, 17.4000°E)
Time: 07:39:21
(UTC+02:00)

YUBILEINY - Pass Details

Date: 19 March 2026
Orbit: 1477 x 1509 km, 82.5° (Epoch: 13 April)

Event Time Altitude Azimuth Distance (km) Brightness Sun altitude
Rises 04:30:05 0° 344° (NNW) 4,618 ? -14.8°
Reaches altitude 10° 04:33:32 10° 332° (NNW) 3,631 ? -14.2°
Maximum altitude 04:40:13 26° 282° (WNW) 2,599 ? -13.2°
Enters shadow 04:46:43 11° 231° (SW) 3,571 ? -12.1°
